Content
SEND FEEDBACK

Daily
Averages
Monthly
Summary
United States of America

INDIANOLA, IOWA


Home > North America > United States > Iowa
Elevation: 288 meters     Latitude: 41 22N     Longitude: 093 33W

WEATHER
 
SELECT A DAY
Number of Records: 201,601;   Date Range: 1/1/95 - 8/12/14
 
SHARE

PRINT THIS DATA

[ ← Previous Day ]
WEATHER ALMANAC - 31 JANUARY, 2013
[ Next Day → ]
[ °F ]   °C
Weather ElementAverageHighLow
Temperature-13.9 °C-10.6 °C (12:54 am) (11:54 pm)
Dewpoint-18.6 °C-13.9 °C (12:54 am)-23.3 °C (11:54 pm)
Humidity68.6 %77 % (12:54 am)63 % (7:54 am)
Barometer1020.3 hPa1030.8 hPa (11:54 pm)1011.9 hPa (1:07 am)
Wind Speed30.6 km/h46.3 km/h (3:54 pm)
Wind Gust57.5 km/h (2:54 pm)
Weather ElementAverage
Visibility13.5 km
Wind DirectionWNW (302.6 °)

Weather ElementTotal
Precipitation---
Heating Degree Days32.6 (Base 18.3)
Averaged from 31 records on 31 January, 2013
WEATHER CONDITIONS BREAKOUT
WIND DIRECTION BREAKOUT
WEATHER BY HOUR - 31 JANUARY, 2013
[ °F ]   °C
Local TimeTemperatureDewpointHumidityBarometerVisibilityWind DirectionWind SpeedGust SpeedPrecipitationEventsConditions
12:54 AM-10.6 °C-13.9 °C77 %1013.5 hPa16.1 kmWNW (300°)22.2 km/hPartly Cloudy
1:07 AM-10.6 °C-14.4 °C74 %1011.9 hPa16.1 kmWNW (300°)22.2 km/hSnowLight Snow
1:22 AM-10.6 °C-14.4 °C74 %1011.9 hPa16.1 kmWNW (300°)25.9 km/hScattered Clouds
1:38 AM-11.1 °C-14.4 °C77 %1012.2 hPa16.1 kmWNW (300°)20.4 km/hSnowLight Snow
1:54 AM-11.1 °C-14.4 °C77 %1013.9 hPa12.9 kmWNW (290°)20.4 km/hSnowLight Snow
2:24 AM-11.7 °C-15 °C77 %1012.5 hPa16.1 kmWNW (290°)20.4 km/hSnowLight Snow
2:51 AM-12 °C-16 °C73 %1012.5 hPa16.1 kmWNW (300°)24.1 km/hPartly Cloudy
2:54 AM-11.7 °C-16.1 °C70 %1014.2 hPa16.1 kmWNW (300°)27.8 km/hPartly Cloudy
3:54 AM-12.2 °C-16.7 °C70 %1014.2 hPa16.1 kmWNW (300°)24.1 km/hClear
4:54 AM-13.3 °C-17.8 °C70 %1014.9 hPa16.1 kmWNW (300°)27.8 km/h44.4 km/hPartly Cloudy
5:54 AM-14.4 °C-18.9 °C69 %1015.6 hPa16.1 kmNW (310°)35.2 km/hClear
6:54 AM-14.4 °C-19.4 °C67 %1016.6 hPa16.1 kmNW (310°)25.9 km/hMostly Cloudy
7:54 AM-15 °C-20.6 °C63 %1017.6 hPa16.1 kmNW (310°)35.2 km/h40.7 km/hOvercast
8:54 AM-15 °C-20 °C66 %1018.6 hPa12.9 kmNW (310°)37 km/h50.1 km/hOvercast
9:54 AM-14.4 °C-20 °C63 %1020 hPa11.3 kmNW (320°)31.5 km/h44.4 km/h0 mmSnowLight Snow
10:54 AM-14.4 °C-19.4 °C67 %1021.7 hPa11.3 kmWNW (300°)37 km/h50.1 km/h0 mmSnowLight Snow
11:48 AM-14 °C-19 °C67 %1020.3 hPa9.7 kmNW (310°)31.5 km/h50.1 km/h0 mmSnowLight Snow
11:54 AM-13.9 °C-19.4 °C64 %1022.7 hPa9.7 kmNW (320°)31.5 km/h0 mmSnowLight Snow
12:54 PM-13.9 °C-18.3 °C70 %1022.7 hPa6.4 kmWNW (290°)38.9 km/h48.1 km/h0 mmSnowLight Snow
1:54 PM-13.9 °C-18.3 °C70 %1023.4 hPa6.4 kmWNW (300°)38.9 km/h55.5 km/h0 mmSnowLight Snow
2:54 PM-13.9 °C-17.2 °C77 %1024 hPa4.8 kmWNW (300°)42.6 km/h57.5 km/h0 mmSnowLight Snow
3:54 PM-14.4 °C-19.4 °C67 %1025.1 hPa8 kmWNW (300°)46.3 km/h55.5 km/h0 mmSnowBlowing Snow
4:54 PM-14.4 °C-19.4 °C67 %1026.1 hPa6.4 kmWNW (300°)35.2 km/h50.1 km/hSnowBlowing Snow
5:54 PM-15 °C-20 °C66 %1027.1 hPa16.1 kmWNW (300°)31.5 km/hMostly Cloudy
6:35 PM-15 °C-20.6 °C63 %1025.1 hPa16.1 kmWNW (300°)31.5 km/hScattered Clouds
6:54 PM-15.6 °C-21.1 °C64 %1027.8 hPa16.1 kmWNW (300°)31.5 km/h48.1 km/hPartly Cloudy
7:54 PM-15.6 °C-21.1 °C64 %1028.4 hPa16.1 kmWNW (300°)27.8 km/hPartly Cloudy
8:54 PM-16.7 °C-21.7 °C66 %1029.5 hPa14.5 kmWNW (300°)31.5 km/h50.1 km/hClear
9:54 PM-16.7 °C-22.2 °C63 %1030.1 hPa16.1 kmWNW (300°)33.3 km/h44.4 km/hPartly Cloudy
10:54 PM-17.2 °C-22.8 °C63 %1030.1 hPa16.1 kmNW (310°)31.5 km/hClear
11:54 PM-17.8 °C-23.3 °C63 %1030.8 hPa16.1 kmNW (310°)27.8 km/hClear
Hourly data recorded from KDSM, located 0 kilometers away from Indianola, Iowa







STORIES FROM OUR PARTNERS